Mora, MN

5:34 PM CST on February 05, 2016 (GMT -0600)
Mora Municipal

Weather History for KJMR - November, 2012

Change the Weather History Date:

Tuesday, November 13, 2012

  Actual Average Record
Temperature  
Mean Temperature 26 °F -  
Max Temperature 37 °F 38 °F 71 °F (1999)
Min Temperature 14 °F 19 °F -5 °F (1986)
Degree Days  
Heating Degree Days 40    
Moisture  
Dew Point 19 °F    
Average Humidity 72    
Maximum Humidity 93    
Minimum Humidity 48    
Precipitation  
Precipitation 0.00 in - - ()
Sea Level Pressure  
Sea Level Pressure 30.29 in    
Wind  
Wind Speed 4 mph (SSW)    
Max Wind Speed 12 mph    
Max Gust Speed -    
Visibility 10 miles    
Events      
Averages and records for this station are not official NWS values.
T = Trace of Precipitation, MM = Missing Value Source: NWS Daily Summary

Daily Weather History Graph

Daily Weather History Graph

Search for Another Location

Airport or City:

Trip Planner

Search our weather history database for the weather conditions in past years. The results will help you decide how hot, cold, wet, or windy it might be!

Date:

Astronomy

Nov. 13, 2012 Rise Set
Actual Time 7:11 AM CST 4:43 PM CST
Civil Twilight 6:38 AM CST 5:15 PM CST
Nautical Twilight 6:02 AM CST 5:51 PM CST
Astronomical Twilight 5:27 AM CST 6:26 PM CST
Moon 6:50 AM CST (11/13) 4:35 PM CST (11/13)
Length of Visible Light 10h 36m
Length of Day
9h 32m
Waning Crescent, 0% of the Moon is Illuminated
Nov 13
Waning Crescent
Nov 13
New
Nov 20
First Quarter
Nov 28
Full
Dec 6
Last Quarter

Hourly Weather History & Observations

Time (CST) Temp. Windchill Dew Point Humidity Pressure Visibility Wind Dir Wind Speed Gust Speed Precip Events Conditions
12:01 AM 21.2 °F 16.4 °F 14.0 °F 74% 30.25 in 10.0 mi West 3.5 mph - N/A   Overcast
12:21 AM 21.2 °F 16.4 °F 14.0 °F 74% 30.26 in 10.0 mi West 3.5 mph - N/A   Overcast
12:41 AM 21.2 °F 12.6 °F 14.0 °F 74% 30.27 in 10.0 mi WSW 6.9 mph - N/A   Overcast
1:01 AM 21.2 °F 14.9 °F 14.0 °F 74% 30.27 in 10.0 mi WSW 4.6 mph - N/A   Overcast
1:21 AM 21.2 °F 14.9 °F 14.0 °F 74% 30.27 in 10.0 mi WSW 4.6 mph - N/A   Overcast
1:41 AM 21.2 °F 14.9 °F 14.0 °F 74% 30.27 in 10.0 mi West 4.6 mph - N/A   Overcast
2:01 AM 21.2 °F 13.6 °F 14.0 °F 74% 30.28 in 10.0 mi West 5.8 mph - N/A   Overcast
2:21 AM 19.4 °F 14.3 °F 14.0 °F 80% 30.29 in 10.0 mi West 3.5 mph - N/A   Overcast
2:41 AM 19.4 °F 12.8 °F 14.0 °F 80% 30.30 in 10.0 mi WSW 4.6 mph - N/A   Overcast
3:01 AM 19.4 °F 14.3 °F 14.0 °F 80% 30.30 in 10.0 mi SW 3.5 mph - N/A   Scattered Clouds
3:21 AM 17.6 °F 12.3 °F 12.2 °F 79% 30.30 in 10.0 mi SW 3.5 mph - N/A   Clear
3:41 AM 17.6 °F - 14.0 °F 86% 30.30 in 10.0 mi Calm Calm - N/A   Clear
4:01 AM 17.6 °F - 14.0 °F 86% 30.29 in 10.0 mi Calm Calm - N/A   Clear
4:21 AM 17.6 °F - 14.0 °F 86% 30.29 in 10.0 mi Calm Calm - N/A   Clear
4:41 AM 15.8 °F 10.2 °F 12.2 °F 86% 30.30 in 10.0 mi South 3.5 mph - N/A   Clear
5:01 AM 15.8 °F - 12.2 °F 86% 30.30 in 10.0 mi Calm Calm - N/A   Clear
5:21 AM 15.8 °F 10.2 °F 12.2 °F 86% 30.31 in 10.0 mi South 3.5 mph - N/A   Clear
5:41 AM 14.0 °F - 12.2 °F 93% 30.31 in 10.0 mi Calm Calm - N/A   Clear
6:21 AM 14.0 °F - 12.2 °F 93% 30.31 in 10.0 mi Calm Calm - N/A   Clear
6:41 AM 14.0 °F - 12.2 °F 93% 30.32 in 10.0 mi Calm Calm - N/A   Clear
7:01 AM 14.0 °F 8.2 °F 12.2 °F 93% 30.31 in 10.0 mi South 3.5 mph - N/A   Clear
7:21 AM 14.0 °F - 12.2 °F 93% 30.32 in 10.0 mi Calm Calm - N/A   Clear
7:41 AM 14.0 °F - 12.2 °F 93% 30.33 in 10.0 mi Calm Calm - N/A   Clear
8:01 AM 17.6 °F 12.3 °F 14.0 °F 86% 30.33 in 10.0 mi South 3.5 mph - N/A   Clear
8:21 AM 17.6 °F 9.3 °F 14.0 °F 86% 30.34 in 10.0 mi South 5.8 mph - N/A   Clear
8:41 AM 19.4 °F 12.8 °F 15.8 °F 86% 30.33 in 10.0 mi South 4.6 mph - N/A   Clear
9:01 AM 21.2 °F 12.6 °F 17.6 °F 86% 30.33 in 10.0 mi SSW 6.9 mph - N/A   Clear
9:21 AM 23.0 °F 14.7 °F 17.6 °F 80% 30.33 in 10.0 mi South 6.9 mph - N/A   Clear
9:41 AM 26.6 °F 18.2 °F 19.4 °F 74% 30.33 in 10.0 mi SSW 8.1 mph - N/A   Clear
10:01 AM 26.6 °F 17.5 °F 17.6 °F 69% 30.33 in 10.0 mi South 9.2 mph - N/A   Clear
10:21 AM 28.4 °F 20.4 °F 17.6 °F 64% 30.33 in 10.0 mi South 8.1 mph - N/A   Clear
10:41 AM 32.0 °F 24.2 °F 19.4 °F 60% 30.32 in 10.0 mi South 9.2 mph - N/A   Clear
11:01 AM 32.0 °F 24.2 °F 19.4 °F 60% 30.32 in 10.0 mi SSW 9.2 mph - N/A   Clear
11:21 AM 32.0 °F 23.0 °F 19.4 °F 60% 30.32 in 10.0 mi South 11.5 mph - N/A   Clear
11:41 AM 32.0 °F 24.8 °F 19.4 °F 60% 30.31 in 10.0 mi South 8.1 mph - N/A   Clear
12:01 PM 33.8 °F 26.4 °F 19.4 °F 56% 30.30 in 10.0 mi South 9.2 mph - N/A   Clear
12:21 PM 33.8 °F 25.3 °F 19.4 °F 56% 30.30 in 10.0 mi SSW 11.5 mph - N/A   Clear
1:01 PM 35.6 °F 29.2 °F 19.4 °F 52% 30.28 in 10.0 mi SSW 8.1 mph - N/A   Clear
1:21 PM 35.6 °F 29.2 °F 19.4 °F 52% 30.28 in 10.0 mi SW 8.1 mph - N/A   Clear
1:41 PM 35.6 °F 31.7 °F 19.4 °F 52% 30.27 in 10.0 mi SSW 4.6 mph - N/A   Clear
2:01 PM 37.4 °F 30.8 °F 19.4 °F 48% 30.27 in 10.0 mi South 9.2 mph - N/A   Clear
2:21 PM 37.4 °F 30.8 °F 19.4 °F 48% 30.26 in 10.0 mi SSW 9.2 mph - N/A   Clear
2:41 PM 37.4 °F 30.8 °F 19.4 °F 48% 30.26 in 10.0 mi South 9.2 mph - N/A   Clear
3:01 PM 35.6 °F 29.2 °F 19.4 °F 52% 30.27 in 10.0 mi South 8.1 mph - N/A   Clear
3:21 PM 35.6 °F 30.7 °F 21.2 °F 56% 30.26 in 10.0 mi South 5.8 mph - N/A   Clear
3:41 PM 35.6 °F 30.7 °F 21.2 °F 56% 30.27 in 10.0 mi South 5.8 mph - N/A   Clear
4:01 PM 35.6 °F 32.8 °F 21.2 °F 56% 30.27 in 10.0 mi South 3.5 mph - N/A   Clear
4:21 PM 35.6 °F - 21.2 °F 56% 30.27 in 10.0 mi Calm Calm - N/A   Scattered Clouds
4:41 PM 33.8 °F 30.8 °F 21.2 °F 60% 30.27 in 10.0 mi SE 3.5 mph - N/A   Clear
5:01 PM 33.8 °F - 21.2 °F 60% 30.27 in 10.0 mi Calm Calm - N/A   Scattered Clouds
5:21 PM 33.8 °F 30.8 °F 21.2 °F 60% 30.27 in 10.0 mi ESE 3.5 mph - N/A   Scattered Clouds
5:41 PM 32.0 °F 28.7 °F 21.2 °F 64% 30.27 in 10.0 mi SE 3.5 mph - N/A   Scattered Clouds
6:01 PM 32.0 °F - 21.2 °F 64% 30.27 in 10.0 mi Calm Calm - N/A   Scattered Clouds
6:21 PM 32.0 °F - 21.2 °F 64% 30.27 in 10.0 mi Calm Calm - N/A   Scattered Clouds
6:41 PM 30.2 °F - 23.0 °F 75% 30.28 in 10.0 mi Calm Calm - N/A   Scattered Clouds
7:01 PM 28.4 °F - 23.0 °F 80% 30.28 in 10.0 mi Calm Calm - N/A   Mostly Cloudy
7:21 PM 30.2 °F - 23.0 °F 75% 30.28 in 10.0 mi Calm Calm - N/A   Scattered Clouds
7:41 PM 28.4 °F - 21.2 °F 74% 30.28 in 10.0 mi Calm Calm - N/A   Overcast
8:01 PM 28.4 °F - 23.0 °F 80% 30.28 in 10.0 mi Calm Calm - N/A   Overcast
8:21 PM 30.2 °F - 23.0 °F 75% 30.27 in 10.0 mi Calm Calm - N/A   Overcast
8:41 PM 32.0 °F 27.5 °F 23.0 °F 69% 30.27 in 10.0 mi SSE 4.6 mph - N/A   Overcast
9:01 PM 33.8 °F 29.6 °F 24.8 °F 70% 30.26 in 10.0 mi SSE 4.6 mph - N/A   Overcast
9:21 PM 33.8 °F 28.6 °F 24.8 °F 70% 30.27 in 10.0 mi SSE 5.8 mph - N/A   Overcast
9:41 PM 33.8 °F 30.8 °F 24.8 °F 70% 30.27 in 10.0 mi South 3.5 mph - N/A   Scattered Clouds
10:01 PM 33.8 °F 29.6 °F 26.6 °F 75% 30.27 in 10.0 mi South 4.6 mph - N/A   Scattered Clouds
10:21 PM 33.8 °F 29.6 °F 26.6 °F 75% 30.27 in 10.0 mi South 4.6 mph - N/A   Scattered Clouds
10:41 PM 33.8 °F 30.8 °F 26.6 °F 75% 30.27 in 10.0 mi SSE 3.5 mph - N/A   Mostly Cloudy
11:01 PM 33.8 °F 30.8 °F 26.6 °F 75% 30.27 in 10.0 mi SSE 3.5 mph - N/A   Overcast
11:21 PM 33.8 °F 29.6 °F 26.6 °F 75% 30.27 in 10.0 mi South 4.6 mph - N/A   Overcast
11:41 PM 33.8 °F 30.8 °F 26.6 °F 75% 30.26 in 10.0 mi South 3.5 mph - N/A   Overcast